Notices

What's New in latest Release from April 7th, 2021:

- Updated Glossary, including Speed of Maximum Gust, and Total Hourly Precipitation

- Updated national and regional climate services offices contacts and prices information

- Addition of station inventory lists for 1981-2010, 1971-2000, and 1961-1990 Normals.

If you haven't already, please take our survey and provide feedback about our website: https://eccc.sondage-survey.ca/f/LanguageSelection.aspx?s=442ca660-fcf1-47c0-95a9-59707d6fd709

Hourly Data Report for November 02, 2017

CARBERRY CS
MANITOBA

49°54'20.900" N
99°21'26.800" W
383.50 m
5010547
71170
WZE

Download Data

Hourly Data (November 2017)
Hourly Data Report for November 2, 2017
TIME
LST
Temp Definition
°C
Dew Point Definition
°C
Rel Hum Definition
%
Precip. Amount Definition
mm

Wind Dir Definition
10's deg

Wind Spd Definition
km/h
Visibility Definition
km
Stn Press Definition
kPa
Hmdx Definition


Wind Chill Definition


Weather Definition


00:00 -1.8 -3.0 92 0.0 1 15   96.62   -7 LegendNANA
01:00 -2.1 -3.8 88 0.0 1 16   96.67   -7 LegendNANA
02:00 -2.7 -4.5 88 0.0 1 16   96.76   -8 LegendNANA
03:00 -3.4 -5.1 87 0.0 35 17   96.86   -9 LegendNANA
04:00 -3.7 -5.3 89 0.0 35 12   96.96   -8 LegendNANA
05:00 -4.2 -5.5 91 0.0 36 19   97.05   -10 LegendNANA
06:00 -4.6 -6.1 90 0.0 36 16   97.12   -10 LegendNANA
07:00 -6.5 -8.0 89 0.2 36 11   97.20   -11 LegendNANA
08:00 -7.1 -8.6 89 0.0 34 9   97.32   -11 LegendNANA
09:00 -3.6 -6.4 81 0.0 35 12   97.43   -8 LegendNANA
10:00 -3.1 -6.3 78 0.0 36 14   97.48   -8 LegendNANA
11:00 -2.9 -7.4 71 0.0 35 16   97.57   -8 LegendNANA
12:00 -2.6 -7.6 68 0.0 35 16   97.60   -8 LegendNANA
13:00 -2.6 -8.0 67 0.0 35 16   97.66   -8 LegendNANA
14:00 -2.4 -8.1 65 0.0 35 17   97.70   -8 LegendNANA
15:00 -2.4 -8.9 61 0.0 34 14   97.76   -7 LegendNANA
16:00 -2.6 -8.6 64 0.0 36 14   97.80   -7 LegendNANA
17:00 -4.5 -9.1 70 0.0 34 8   97.90   -8 LegendNANA
18:00 -6.9 -10.8 74 0.0 35 5   98.00   -9 LegendNANA
19:00 -8.2 -12.4 72 0.0 2 8   98.07   -12 LegendNANA
20:00 -8.4 -11.5 78 0.0 3 12   98.10   -14 LegendNANA
21:00 -10.2 -12.5 83 0.0   0   98.16     LegendNANA
22:00 -12.2 -14.0 86 0.0 25 3   98.23   -14 LegendNANA
23:00 -11.5 -12.6 92 0.0 29 3   98.23   -13 LegendNANA

Notes on Data Quality.

Legend

  • E = Estimated
  • M = Missing
  • NA = Not Available*
  • [empty] = Indicates an unobserved value
Date modified: